Regional Weather Roundup
Issued by NWS

Home | Current Version | Previous Version | Graphics & Text | Print | Product List | Glossary On
Versions: 1 2 3 4 5 6 7 8 9 10 11 12 13 14 15 16 17 18 19 20 21 22 23 24 25 26 27 28 29 30 31 32 33 34 35 36 37 38 39 40 41 42 43 44 45 46 47 48 49 50
000
ASUS43 KTOP 080108
RWRKS

WEATHER ROUNDUP FOR KANSAS
NATIONAL WEATHER SERVICE GOODLAND KS
800 PM CDT TUE JUL 07 2015

NOTE:  "FAIR" INDICATES FEW OR NO CLOUDS BELOW 12,000 FEET WITH NO
SIGNIFICANT WEATHER AND/OR OBSTRUCTIONS TO VISIBILITY.

KSZ001>006-013>018-027>032-041>047-080200-
NORTHWEST KANSAS

CITY           SKY/WX    TMP DP  RH WIND       PRES   REMARKS
GOODLAND       MOSUNNY   71  44  37 SE13      30.11S
HAYS           SUNNY     73  46  38 NE10      30.07F
HILL CITY      MOSUNNY   74  48  39 E10       30.09S
RUSSELL        MOSUNNY   73  49  42 E9        30.06R
$$

KSZ061>065-074>080-084>089-080200-
SOUTHWEST KANSAS

CITY           SKY/WX    TMP DP  RH WIND       PRES   REMARKS
DODGE CITY     MOSUNNY   71  46  40 E12       30.07S
ELKHART          N/A     73  48  41 E12         N/A
GARDEN CITY    MOSUNNY   73  46  38 E10       30.08R
GREAT BEND     SUNNY     72  48  43 E9        30.07S
LIBERAL        SUNNY     72  45  37 SE14      30.09R
PRATT          MOCLDY    68  46  45 NE9       30.07S
$$

KSZ066>073-081>083-090>101-080200-
SOUTHEAST KANSAS

CITY           SKY/WX    TMP DP  RH WIND       PRES   REMARKS
CHANUTE        LGT RAIN  64  61  90 NE9G21    30.03F FOG
COFFEYVILLE    CLOUDY    66  63  90 NE13      30.02R FOG
HUTCHINSON     CLOUDY    66  51  58 NE5       30.05F
MEDICINE LODGE   N/A     63  58  83 NE7       30.04F
NEWTON         CLOUDY    63  54  72 NE6       30.07F
PARSONS        LGT RAIN  65  63  93 VRB5      30.04R FOG
WICHITA INTL   LGT RAIN  66  55  67 NE14      30.03S
WICHITA JABRA  CLOUDY    64  57  78 NE10      30.03F
WICHITA MCCONL CLOUDY    65  57  74 NE13      30.03S
WINFIELD       LGT RAIN  64  62  93 NE13      30.03S FOG
$$

KSZ007>012-019>026-033>040-048>060-102>105-080200-
NORTHEAST KANSAS

CITY           SKY/WX    TMP DP  RH WIND       PRES   REMARKS
CONCORDIA      CLEAR     70  49  47 NE8       30.07S
EMPORIA        LGT RAIN  65  60  84 NE7       30.05S
LAWRENCE       CLOUDY    69  64  84 CALM      30.05R HAZE
MANHATTAN      CLOUDY    70  56  61 E6        30.06R
MARYSVILLE     MOCLDY    68  54  60 E6        30.08R
OLATHE IND     LGT RAIN  66  64  93 N3        30.06R FOG
OLATHE EXE     LGT RAIN  66  61  84 N3        30.05R
SALINA         MOCLDY    72  51  47 E9        30.06S
TOPEKA BILLARD CLOUDY    69  61  75 N3        30.05S
TOPEKA FORBES  CLOUDY    70  60  70 CALM      30.05S HAZE
$$


USA.gov is the U.S. government's official web portal to all federal, state and local government web resources and services.